Location: Prestwich
(53.5236°N, 2.2783°W)
Time: 03:57:52
(UTC+01:00)

ISS - Visible Passes

Search period start: 18 May 2021 00:00
Search period end: 28 May 2021 00:00
Orbit: 417 x 422 km, 51.6° (Epoch: 18 May)

Date Brightness Start Highest point End Pass type
(mag) Time Alt. Az. Time Alt. Az. Time Alt. Az.
18 May -3.9 00:16:50 10° W 00:20:11 64° S 00:22:53 15° ESE visible
18 May -2.7 01:53:36 10° W 01:55:46 30° WSW 01:55:46 30° WSW visible
18 May -3.0 21:53:09 10° SW 21:56:13 33° SSE 21:59:18 10° E visible
18 May -3.8 23:29:25 10° WSW 23:32:45 63° S 23:36:07 10° E visible
19 May -3.5 01:06:07 10° W 01:09:22 46° SSW 01:09:22 46° SSW visible
19 May -3.7 22:42:00 10° WSW 22:45:20 58° S 22:48:39 10° E visible
20 May -3.7 00:18:40 10° W 00:21:59 55° S 00:23:12 33° SE visible
20 May -1.4 01:55:40 10° W 01:56:07 12° W 01:56:07 12° W visible
20 May -3.5 21:54:38 10° WSW 21:57:55 51° SSE 22:01:12 10° E visible
20 May -3.8 23:31:14 10° W 23:34:33 61° S 23:37:06 16° ESE visible
21 May -2.4 01:08:04 10° W 01:10:02 24° WSW 01:10:02 24° WSW visible
21 May -3.8 22:43:47 10° W 22:47:07 64° S 22:50:28 10° E visible
22 May -3.2 00:20:33 10° W 00:23:42 37° SSW 00:23:59 37° S visible
22 May -3.7 21:56:21 10° WSW 21:59:41 63° S 22:03:02 10° E visible
22 May -3.4 23:33:03 10° W 23:36:18 46° SSW 23:37:58 24° SE visible
23 May -1.4 01:10:21 10° WSW 01:10:54 12° WSW 01:10:54 12° WSW visible
23 May -3.6 22:45:35 10° W 22:48:54 55° SSW 22:51:59 11° ESE visible
24 May -2.3 00:22:35 10° W 00:24:55 22° SW 00:24:55 22° SW visible
24 May -2.7 23:34:58 10° W 23:37:57 29° SSW 23:38:57 24° S visible
25 May -3.0 22:47:25 10° W 22:50:35 37° SSW 22:53:01 15° SE visible
26 May -1.3 00:25:24 10° WSW 00:25:57 11° SW 00:25:57 11° SW visible
26 May -1.9 23:37:14 10° WSW 23:39:27 17° SW 23:40:02 16° SSW visible
27 May -2.2 22:49:27 10° W 22:52:08 22° SSW 22:54:09 14° SSE visible
